Location: Nitra
(48.3167°N, 18.0833°E)
Time: 07:52:43
(UTC+02:00)

STARLINK-1751 - Pass Details

Date: 24 September 2020
Orbit: 379 x 380 km, 53.0° (Epoch: 23 October)

Event Time Altitude Azimuth Distance (km) Brightness Sun altitude
Exits shadow 05:00:47 23° 319° (NW) 858 4.4 -16.6°
Maximum altitude 05:02:07 35° 8° (N) 638 4.2 -16.4°
Drops below altitude 10° 05:05:02 10° 77° (ENE) 1,401 7.1 -16.0°
Sets 05:07:12 0° 86° (E) 2,253 8.4 -15.6°
